Weather History for Pratica di Mare, Italy

Change the Weather History Date:

Thursday, December 26, 2013

  Actual Average Record
Temperature  
Mean Temperature 56 °F -  
Max Temperature 60 °F 55 °F 63 °F (2012)
Min Temperature 51 °F 39 °F 33 °F (1998)
Degree Days  
Heating Degree Days 10    
Growing Degree Days 6 (Base 50)    
Moisture  
Dew Point 49 °F    
Average Humidity 77    
Maximum Humidity 94    
Minimum Humidity 54    
Precipitation  
Precipitation 0.04 in 0.10 in - ()
Sea Level Pressure  
Sea Level Pressure 29.43 in    
Wind  
Wind Speed 21 mph ()    
Max Wind Speed 31 mph    
Max Gust Speed 45 mph    
Visibility 5.6 miles    
Events Rain    
Averages and records for this station are not official NWS values.
T = Trace of Precipitation, MM = Missing Value Source: Averaged Metar Reports

Daily Weather History Graph

Daily Weather History Graph

Search for Another Location

Airport:

Trip Planner

Search our weather history database for the weather conditions in past years. The results will help you decide how hot, cold, wet, or windy it might be!

Date:

Astronomy

Dec. 26, 2013 Rise Set
Actual Time 7:35 AM CET 4:45 PM CET
Civil Twilight 7:04 AM CET 5:17 PM CET
Nautical Twilight 6:29 AM CET 5:52 PM CET
Astronomical Twilight 5:55 AM CET 6:26 PM CET
Moon 12:43 AM CET (12/26) 12:15 PM CET (12/26)
Length of Visible Light 10h 13m
Length of Day
9h 10m
Last Quarter, 41% of the Moon is Illuminated
Dec 26
Last Quarter
Jan 1
New
Jan 8
First Quarter
Jan 16
Full
Jan 24
Last Quarter

Hourly Weather History & Observations

Time (CET) Temp. Dew Point Humidity Pressure Visibility Wind Dir Wind Speed Gust Speed Precip Events Conditions
12:55 AM 57.2 °F 53.6 °F 88% 29.59 in 6.2 mi SE 25.3 mph 38.0 mph N/A   Scattered Clouds
1:00 AM 57 °F 53 °F 81% 29.60 in 6 mi SE 25.3 mph - -   Partly Cloudy
1:12 AM 57.2 °F 55.4 °F 94% 29.59 in 4.3 mi SSE 21.9 mph - N/A Rain Rain
1:55 AM 57.2 °F 53.6 °F 88% 29.56 in 5.0 mi SE 23.0 mph - N/A Rain Light Rain
2:55 AM 57.2 °F 55.4 °F 94% 29.56 in 5.0 mi SE 26.5 mph - N/A Rain Light Rain
3:55 AM 57.2 °F 55.4 °F 94% 29.47 in 5.0 mi SSE 29.9 mph 44.9 mph N/A Rain Light Rain
4:00 AM 58 °F 55 °F 87% 29.49 in 5 mi SSE 29.9 mph - - Rain Light Rain
4:55 AM 57.2 °F 55.4 °F 94% 29.44 in 5.0 mi SSE 31.1 mph 43.7 mph N/A Rain Light Rain
5:55 AM 57.2 °F 53.6 °F 88% 29.39 in 5.0 mi South 28.8 mph 41.4 mph N/A Rain Light Rain
6:55 AM 59.0 °F 55.4 °F 88% 29.39 in 5.0 mi South 28.8 mph 41.4 mph N/A Rain Light Rain
7:00 AM 59 °F 55 °F 83% 29.41 in 5 mi South 28.8 mph - - Rain Light Rain
7:55 AM 59.0 °F 53.6 °F 82% 29.36 in 3.7 mi South 27.6 mph - N/A Rain Rain
8:55 AM 57.2 °F 55.4 °F 94% 29.36 in 5.0 mi South 23.0 mph - N/A Rain Light Rain
9:55 AM 57.2 °F 51.8 °F 82% 29.36 in 5.0 mi South 27.6 mph - N/A Rain Light Rain
10:00 AM 58 °F 51 °F 71% 29.37 in 5 mi South 27.6 mph - - Rain Light Rain
10:55 AM 57.2 °F 50.0 °F 77% 29.39 in 5.0 mi SSW 23.0 mph - N/A Rain Light Rain
11:55 AM 55.4 °F 48.2 °F 77% 29.39 in 6.2 mi WSW 23.0 mph - N/A   Mostly Cloudy
12:55 PM 55.4 °F 46.4 °F 72% 29.36 in 6.2 mi WSW 20.7 mph - N/A   Mostly Cloudy
1:00 PM 56 °F 47 °F 63% 29.38 in 6 mi WSW 20.7 mph - -   Partly Cloudy
1:55 PM 55.4 °F 48.2 °F 77% 29.36 in 6.2 mi WSW 16.1 mph - N/A   Mostly Cloudy
2:55 PM 55.4 °F 44.6 °F 67% 29.36 in 6.2 mi WSW 18.4 mph - N/A   Mostly Cloudy
3:55 PM 55.4 °F 46.4 °F 72% 29.39 in 6.2 mi WSW 16.1 mph - N/A   Mostly Cloudy
4:00 PM 55 °F 46 °F 63% 29.39 in 6 mi WSW 16.1 mph - -   Overcast
4:55 PM 53.6 °F 42.8 °F 67% 29.39 in 6.2 mi WSW 18.4 mph - N/A   Mostly Cloudy
5:55 PM 53.6 °F 42.8 °F 67% 29.39 in 6.2 mi WSW 16.1 mph - N/A   Scattered Clouds
6:55 PM 53.6 °F 42.8 °F 67% 29.42 in 6.2 mi WSW 16.1 mph - N/A   Scattered Clouds
7:00 PM 54 °F 42 °F 54% 29.42 in 6 mi WSW 16.1 mph - -   Mostly Cloudy
7:55 PM 53.6 °F 41.0 °F 62% 29.42 in 6.2 mi WSW 16.1 mph - N/A   Scattered Clouds
8:55 PM 53.6 °F 41.0 °F 62% 29.42 in 6.2 mi WSW 17.3 mph - N/A   Scattered Clouds
9:55 PM 51.8 °F 42.8 °F 71% 29.42 in 6.2 mi WSW 15.0 mph - N/A   Scattered Clouds
10:00 PM 53 °F 42 °F 57% 29.43 in 6 mi WSW 15.0 mph - -   Mostly Cloudy
10:55 PM 51.8 °F 44.6 °F 76% 29.44 in 6.2 mi WSW 11.5 mph - N/A   Scattered Clouds
11:55 PM 51.8 °F 44.6 °F 76% 29.44 in 6.2 mi WSW 11.5 mph - N/A   Scattered Clouds